7 * 24
多渠道服务支持
STARLINK-31909是美国太空探索技术公司(SpaceX)星链卫星互联网项目的一颗卫星,于2024年5月6日8时发射升空。它是星链低轨星座的组成部分,归入美国STARLINK卫星系列,主要为全球提供高速卫星互联网接入服务,进一步补全星链星座的全球覆盖能力,服务卫星网络通信布局。
美国
(US)
| 数据来源 | 国际轨道数据 | AOE轨道数据 |
| 星历时间 | 2026-09-03T09:19:53+0800 1天前 查看轨道信息 | 2026-08-31T22:00:00+0800 3天前 查看轨道信息 |
| 半长轴 | 6861.182km | 6861.174km |
| 偏心率 | 0.0001188 | 0.0000043 |
| 轨道倾角 | 43.002° | 43.000° |
| 近地点辐角 | 259.987° | 215.803° |
| 升交点赤经 | 119.766° | 133.729° |
| 平近点角 | 100.084° | 213.299° |
| 近地点 | 482.229km | 483.007km |
| 远地点 | 483.861km | 483.067km |
| 周期 | 94.267分钟 | 94.266分钟 |
| 每日圈数 | 15.275816 | 15.275843 |
| 事件ID | 空间交会对象 | 最接近时刻(TCA) | 交会距离 | 交会风险概率(CRP) | 交会风险指数(CRI) | 操作 |
|---|---|---|---|---|---|---|
| CDM_260905-202605-966306-659521 |
STARLINK-31909
(59663)
STARLINK-35711
(66595) | 2026-09-05T 20:26:26+0000 |
0.965 km
远距离 | 6.312715E-6 低风险 | 0.51 | |
| CDM_260905-024005-187305-966321 |
STARLINK-3582
(51873)
STARLINK-31909
(59663) | 2026-09-05T 02:40:35+0000 |
1.864 km
极远距离 | 2.871425E-6 低风险 | 0.44 | |
| CDM_260905-121504-379405-966322 |
HAWK-B
(43794)
STARLINK-31909
(59663) | 2026-09-05T 12:15:54+0000 |
2.364 km
极远距离 | 1.911742E-6 低风险 | 0.41 | |
| CDM_260905-211305-966306-659521 |
STARLINK-31909
(59663)
STARLINK-35711
(66595) | 2026-09-05T 21:13:30+0000 |
1.391 km
极远距离 | 1.902947E-6 低风险 | 0.41 | |
| CDM_260905-150905-870205-966321 |
TIANMU-1 17
(58702)
STARLINK-31909
(59663) | 2026-09-05T 15:09:46+0000 |
2.462 km
极远距离 | 1.230354E-6 低风险 | 0.37 | |
| CDM_260905-193505-966306-403521 |
STARLINK-31909
(59663)
STARLINK-34046
(64035) | 2026-09-05T 19:35:17+0000 |
2.819 km
极远距离 | 1.087808E-6 低风险 | 0.36 | |
| CDM_260905-224705-966306-659521 |
STARLINK-31909
(59663)
STARLINK-35711
(66595) | 2026-09-05T 22:47:39+0000 |
2.399 km
极远距离 | 5.217652E-7 极低风险 | 0.29 |